1KUNS-PF

Last updated on June 12, 2020, 12:02 a.m. UTC

1 43466U 98067NP  20162.72983235  .07919004  12439-4  62785-3 0  9997
2 43466  51.6123 283.7308 0007318 301.8476 166.2040 16.39179723119460

Satellite is not in orbit.